[[{"header":{"parameterUnit":"m.s-1","parameterCategory":1,"la1":30.2991,"la2":30.254,"lo1":-89.0895,"lo2":-89.0444,"dy":0.0017,"dx":0.0017,"nx":28,"ny":28,"refTime":"2024-02-06T09:00:00:Z","depth":0,"parameterNumber":2,"parameterNumberName":"U-component_of_WINDS"},"data":[0,0,0,0,0,0,0,0,0,0,0,0,0,0,0,0,0,0,0,0,0,0,0,0,0,0,0,0,0,0,0,0,0,0,0,0,0,0,0,0,0,0,0,0,0,0,0,0,0,0,0,0,0,0,0,0,0,0,1.6158,1.6157,0,1.615,1.615,1.615,1.6101,1.61,1.6099,1.6098,1.6092,1.6093,1.6093,0,0,0,0,0,0,0,0,0,0,0,0,0,1.6132,1.6133,1.6158,1.6157,1.6157,1.615,1.615,1.615,1.6102,1.61,1.6099,1.6098,1.6091,1.6092,1.6094,0,0,0,0,0,0,0,0,0,0,0,0,0,1.6136,1.6133,1.6158,1.6132,1.613,1.615,1.615,1.615,1.6102,1.61,1.6098,1.6097,1.6091,1.6092,1.6094,1.6137,0,0,1.6098,1.6099,0,0,0,0,0,0,0,0,1.6136,1.6137,1.6136,1.6134,1.6132,1.6125,1.6138,1.6146,1.6102,1.6113,1.6098,1.6096,1.6104,1.6104,1.6107,1.6137,1.6137,1.6098,1.6099,1.6099,1.61,0,0,0,0,0,0,0,1.6135,1.6137,1.6155,1.6136,1.6134,1.6122,1.6121,1.614,1.6118,1.6112,1.6108,1.6108,1.6103,1.6106,1.6106,1.6137,1.6098,1.6099,1.61,1.6101,1.6204,1.6205,0,0,0,0,0,0,1.6139,1.6137,1.6155,1.6154,1.6129,1.6124,1.6122,1.6129,1.6118,1.6115,1.6109,1.6106,1.6104,1.6105,1.6106,1.6157,1.6099,1.6101,1.6102,1.6202,1.6204,1.6206,0,0,0,0,0,0,1.6138,1.6141,1.6155,1.6145,1.6146,1.6126,1.6134,1.613,1.6132,1.6116,1.6112,1.6116,1.6103,1.6104,1.613,1.6156,1.6101,1.6103,1.62,1.6202,1.6205,1.6259,0,0,0,0,0,0,1.6138,1.6141,1.6157,1.6145,1.6146,1.6179,1.6135,1.6131,1.6135,1.613,1.6122,1.6119,1.6101,1.6128,1.6132,1.6157,1.6104,1.6197,1.6201,1.6204,1.6255,1.6263,1.6271,0,0,0,0,0,1.6137,1.6172,1.6158,1.616,1.6166,1.618,1.6181,1.616,1.6137,1.6153,1.6143,1.6119,1.6153,1.6131,1.6135,1.6161,1.6195,1.62,1.6204,1.6251,1.6262,1.6271,0,0,0,0,0,0,1.6187,1.617,1.6154,1.6187,1.6185,1.6172,1.6192,1.6172,1.6177,1.6172,1.6147,1.6145,1.6175,1.6171,1.6147,1.6203,1.617,1.6175,1.6205,1.6215,1.6223,1.6223,1.6105,0,0,0,0,0,1.6202,1.6215,1.62,1.623,1.623,1.6212,1.6217,1.6201,1.6199,1.6198,1.619,1.6189,1.6199,1.6207,1.6215,1.6254,1.6252,1.6274,1.6282,1.6288,1.6293,1.6314,1.6324,1.622,1.622,1.622,0,0,1.6233,1.6225,1.6235,1.624,1.6237,1.6252,1.6211,1.6228,1.6239,1.6201,1.6225,1.6219,1.6216,1.6249,1.6263,1.6246,1.6321,1.6294,1.6299,1.63,1.6319,1.6329,1.6338,1.6223,1.6223,1.6222,0,0,1.6297,1.6292,1.6317,1.6315,1.6311,1.6299,1.6305,1.6295,1.629,1.6313,1.6285,1.6298,1.6316,1.6316,1.6318,1.6383,1.6361,1.6387,1.6428,1.6449,1.6457,1.6464,1.6487,1.6496,1.6392,1.6392,1.6392,0,1.6336,1.6356,1.6333,1.6351,1.6355,1.6321,1.6347,1.6346,1.6346,1.6349,1.633,1.6353,1.6349,1.6381,1.6397,1.64,1.6407,1.6387,1.6457,1.6464,1.6471,1.6493,1.6502,1.6395,1.6394,1.6394,1.6394,0,1.6404,1.6419,1.6439,1.644,1.6445,1.6467,1.6448,1.6457,1.6441,1.6431,1.6456,1.645,1.6457,1.6464,1.6448,1.6495,1.6484,1.6462,1.6428,1.6484,1.6504,1.6513,1.6399,1.6398,1.6397,1.6396,0,0,1.6499,1.6486,1.6494,1.6494,1.6488,1.6499,1.652,1.6527,1.6535,1.6536,1.6554,1.6571,1.655,1.6553,1.6537,1.6555,1.6608,1.653,1.653,1.6545,1.6659,1.6676,1.6686,1.6593,1.6595,1.6596,1.6659,0,1.656,1.6594,1.6575,1.6612,1.6626,1.6595,1.6613,1.6612,1.6603,1.6614,1.6605,1.6617,1.6589,1.659,1.6607,1.6598,1.663,1.6593,1.661,1.6611,1.6611,1.6696,1.6714,1.6774,1.6667,1.6668,1.6669,0,1.6635,1.664,1.6679,1.6671,1.6676,1.6693,1.6698,1.6708,1.6706,1.6699,1.6702,1.6683,1.6704,1.6671,1.67,1.6675,1.6681,1.6678,1.6679,1.668,1.6643,1.6699,1.6792,1.6801,1.6681,1.668,1.668,0,1.6701,1.6716,1.6742,1.6743,1.6734,1.6747,1.6744,1.674,1.6746,1.675,1.6754,1.6761,1.6766,1.6772,1.6755,1.6733,1.6787,1.6752,1.6782,1.6782,1.6794,1.6794,1.689,1.6799,1.6798,1.6798,1.6798,0,1.6771,1.6796,1.6771,1.6787,1.6814,1.6792,1.682,1.6814,1.6811,1.6826,1.68,1.6814,1.6791,1.6803,1.679,1.6817,1.6819,1.6814,1.681,1.6816,1.6817,1.682,1.6815,1.6801,1.68,1.68,1.6799,0,1.6848,1.6832,1.6858,1.6848,1.6846,1.6867,1.6858,1.6873,1.6863,1.6881,1.6885,1.6869,1.6882,1.6866,1.6878,1.687,1.6905,1.6896,1.6906,1.6903,1.6934,1.6931,1.7034,1.7047,1.6948,1.6949,1.695,0,1.6894,1.6913,1.6905,1.6912,1.6911,1.6923,1.6929,1.6908,1.6915,1.6915,1.693,1.6941,1.6949,1.6972,1.6962,1.6971,1.6961,1.6997,1.6962,1.6968,1.6962,1.6961,1.6963,1.7004,1.7005,1.7006,1.7007,0,1.6977,1.6969,1.6977,1.6984,1.6991,1.6996,1.6998,1.7006,1.6984,1.6994,1.7007,1.7013,1.7025,1.7037,1.7044,1.7041,1.7021,1.7018,1.7025,1.7031,1.7037,1.7034,1.6925,1.7015,1.7015,1.7014,1.7013,1.7013,1.704,1.7055,1.7052,1.7063,1.7063,1.7066,1.7079,1.7071,1.7081,1.7089,1.7076,1.7093,1.7092,1.7099,1.7099,1.7112,1.7097,1.7108,1.711,1.7113,1.7118,1.7035,1.7114,1.7113,1.7113,1.7113,1.7113,0,1.7122,1.7118,1.7129,1.7133,1.7142,1.7122,1.7123,1.7132,1.7147,1.7148,1.7156,1.7171,1.7183,1.7174,1.7184,1.7196,1.7187,1.72,1.7198,1.7198,1.7131,1.7124,1.7207,1.7207,1.7207,1.7207,1.7207,1.7207,1.7165,1.719,1.7182,1.7207,1.7203,1.7219,1.7222,1.7225,1.7225,1.7243,1.7253,1.7247,1.7244,1.7253,1.7263,1.7261,1.7265,1.7281,1.7275,1.7212,1.7203,1.7194,1.7187,1.7282,1.7283,1.7341,1.7342,1.7342]},{"header":{"parameterUnit":"m.s-1","parameterCategory":1,"la1":30.2991,"la2":30.254,"lo1":-89.0895,"lo2":-89.0444,"dy":0.0017,"dx":0.0017,"nx":28,"ny":28,"refTime":"2024-02-06T09:00:00:Z","depth":0,"parameterNumber":3,"parameterNumberName":"V-component_of_WINDS"},"data":[0,0,0,0,0,0,0,0,0,0,0,0,0,0,0,0,0,0,0,0,0,0,0,0,0,0,0,0,0,0,0,0,0,0,0,0,0,0,0,0,0,0,0,0,0,0,0,0,0,0,0,0,0,0,0,0,0,0,-2.5217,-2.5218,0,-2.5306,-2.5307,-2.5308,-2.5279,-2.5277,-2.5275,-2.5273,-2.5369,-2.5373,-2.5378,0,0,0,0,0,0,0,0,0,0,0,0,0,-2.5026,-2.503,-2.5217,-2.5218,-2.5219,-2.5306,-2.5307,-2.5308,-2.5279,-2.5277,-2.5274,-2.5272,-2.5368,-2.5373,-2.5378,0,0,0,0,0,0,0,0,0,0,0,0,0,-2.5112,-2.5031,-2.5216,-2.5214,-2.5215,-2.5306,-2.5307,-2.5309,-2.5279,-2.5277,-2.5274,-2.5271,-2.5366,-2.5372,-2.5379,-2.5478,0,0,-2.5399,-2.5402,0,0,0,0,0,0,0,0,-2.5107,-2.5119,-2.5214,-2.5215,-2.5216,-2.5278,-2.5275,-2.5366,-2.528,-2.5255,-2.5273,-2.5269,-2.5341,-2.535,-2.5373,-2.5482,-2.5486,-2.5399,-2.5403,-2.5406,-2.5408,0,0,0,0,0,0,0,-2.5101,-2.5115,-2.5252,-2.5215,-2.5216,-2.5211,-2.522,-2.5292,-2.5314,-2.5257,-2.5255,-2.5266,-2.5341,-2.5367,-2.5375,-2.5488,-2.5399,-2.5405,-2.5409,-2.5412,-2.5686,-2.5689,0,0,0,0,0,0,-2.5094,-2.511,-2.5249,-2.5255,-2.5153,-2.5217,-2.5227,-2.5261,-2.5313,-2.5318,-2.5268,-2.5264,-2.5357,-2.5368,-2.5379,-2.55,-2.5406,-2.5412,-2.5416,-2.5683,-2.5687,-2.569,0,0,0,0,0,0,-2.509,-2.5106,-2.5246,-2.5182,-2.5199,-2.5223,-2.5262,-2.5264,-2.529,-2.5321,-2.5326,-2.529,-2.5355,-2.5369,-2.5454,-2.5503,-2.5415,-2.5421,-2.5679,-2.5684,-2.5688,-2.5742,0,0,0,0,0,0,-2.5084,-2.5105,-2.5141,-2.5183,-2.5203,-2.5318,-2.5265,-2.5268,-2.5301,-2.5296,-2.5343,-2.5348,-2.5354,-2.5444,-2.546,-2.551,-2.5426,-2.5674,-2.5681,-2.5687,-2.5736,-2.5748,-2.5759,0,0,0,0,0,-2.5078,-2.5153,-2.5143,-2.516,-2.5248,-2.532,-2.5332,-2.5336,-2.5305,-2.5343,-2.5363,-2.5346,-2.5494,-2.5453,-2.5471,-2.5523,-2.5671,-2.5679,-2.5686,-2.5731,-2.5746,-2.5758,0,0,0,0,0,0,-2.5118,-2.5159,-2.5148,-2.5239,-2.5276,-2.5315,-2.5363,-2.5352,-2.54,-2.5394,-2.5399,-2.541,-2.5497,-2.5518,-2.5471,-2.5624,-2.5578,-2.559,-2.5606,-2.5621,-2.5632,-2.5625,-2.5432,0,0,0,0,0,-2.5137,-2.5191,-2.5224,-2.5301,-2.532,-2.5339,-2.537,-2.5371,-2.541,-2.5426,-2.5453,-2.5493,-2.5549,-2.5586,-2.5639,-2.5739,-2.575,-2.5784,-2.5795,-2.5805,-2.5815,-2.5872,-2.5888,-2.5715,-2.5715,-2.5715,0,0,-2.5178,-2.5207,-2.5241,-2.531,-2.5339,-2.5397,-2.5352,-2.5414,-2.5458,-2.5436,-2.5517,-2.5539,-2.5584,-2.5678,-2.572,-2.5698,-2.5865,-2.5814,-2.5821,-2.5827,-2.5881,-2.5898,-2.5912,-2.572,-2.5719,-2.5718,0,0,-2.5282,-2.5308,-2.5376,-2.5407,-2.5451,-2.5463,-2.5479,-2.552,-2.5534,-2.5615,-2.5601,-2.5653,-2.5749,-2.5783,-2.5812,-2.5931,-2.5919,-2.5949,-2.6008,-2.6064,-2.6077,-2.609,-2.6134,-2.615,-2.5959,-2.5959,-2.5959,0,-2.5328,-2.5412,-2.5413,-2.5477,-2.5509,-2.5492,-2.5562,-2.5592,-2.5652,-2.5676,-2.565,-2.5771,-2.58,-2.5902,-2.5932,-2.5956,-2.5977,-2.5944,-2.6075,-2.6087,-2.6099,-2.6141,-2.6158,-2.5962,-2.5962,-2.5961,-2.5961,0,-2.5467,-2.5526,-2.5576,-2.5633,-2.5671,-2.5738,-2.5752,-2.579,-2.5788,-2.5803,-2.5888,-2.5923,-2.5984,-2.6008,-2.6006,-2.6111,-2.6096,-2.6073,-2.6028,-2.6119,-2.6159,-2.6175,-2.5967,-2.5966,-2.5965,-2.5964,0,0,-2.5598,-2.5656,-2.5675,-2.5702,-2.575,-2.5797,-2.5864,-2.5923,-2.5957,-2.5999,-2.6057,-2.6139,-2.6119,-2.6153,-2.6155,-2.6203,-2.6298,-2.6175,-2.6176,-2.6198,-2.6418,-2.6437,-2.6455,-2.629,-2.6293,-2.6295,-2.6415,0,-2.5707,-2.5824,-2.5828,-2.5935,-2.5991,-2.5976,-2.6035,-2.6073,-2.609,-2.6141,-2.616,-2.6219,-2.6186,-2.6207,-2.6254,-2.6277,-2.6343,-2.6268,-2.6346,-2.6349,-2.6336,-2.6476,-2.6495,-2.6606,-2.6431,-2.6433,-2.6435,0,-2.585,-2.5896,-2.6009,-2.6051,-2.6075,-2.6127,-2.6183,-2.6231,-2.6274,-2.6283,-2.6322,-2.6318,-2.639,-2.6342,-2.6442,-2.6391,-2.6423,-2.6439,-2.6444,-2.6452,-2.6398,-2.649,-2.6641,-2.6659,-2.646,-2.6458,-2.6456,0,-2.5937,-2.6027,-2.6107,-2.613,-2.6181,-2.6219,-2.6242,-2.6282,-2.6318,-2.6367,-2.639,-2.6447,-2.6479,-2.6524,-2.6537,-2.65,-2.6638,-2.659,-2.6649,-2.6649,-2.6679,-2.6677,-2.684,-2.6698,-2.6698,-2.6697,-2.6697,0,-2.6059,-2.6129,-2.6147,-2.6196,-2.6275,-2.628,-2.6359,-2.638,-2.6416,-2.6471,-2.6462,-2.6514,-2.6526,-2.6581,-2.6592,-2.6674,-2.6688,-2.6699,-2.6702,-2.6701,-2.67,-2.6723,-2.6716,-2.6702,-2.6701,-2.67,-2.6699,0,-2.6169,-2.6184,-2.627,-2.6311,-2.6323,-2.638,-2.6416,-2.6465,-2.648,-2.655,-2.6567,-2.6593,-2.6657,-2.6674,-2.6751,-2.6758,-2.6857,-2.6851,-2.6842,-2.6842,-2.6901,-2.6896,-2.7085,-2.7111,-2.6951,-2.6952,-2.6953,0,-2.6247,-2.63,-2.6347,-2.6383,-2.6407,-2.6464,-2.6501,-2.6509,-2.6548,-2.6602,-2.6645,-2.6708,-2.6759,-2.6864,-2.6891,-2.6951,-2.6947,-2.7009,-2.6956,-2.6955,-2.6951,-2.6948,-2.6954,-2.702,-2.7022,-2.7023,-2.7024,0,-2.6384,-2.6388,-2.644,-2.6495,-2.6539,-2.6583,-2.6625,-2.6655,-2.667,-2.6714,-2.678,-2.6819,-2.6899,-2.6963,-2.7023,-2.705,-2.7041,-2.7041,-2.7058,-2.7059,-2.7052,-2.7058,-2.6871,-2.7036,-2.7035,-2.7034,-2.7034,-2.7033,-2.6481,-2.6529,-2.657,-2.6628,-2.6661,-2.6701,-2.6749,-2.6771,-2.6825,-2.689,-2.6892,-2.6964,-2.7009,-2.7089,-2.7119,-2.7177,-2.7158,-2.7183,-2.7189,-2.7196,-2.7202,-2.7041,-2.7188,-2.7187,-2.7187,-2.7187,-2.7187,0,-2.6619,-2.6645,-2.6699,-2.6758,-2.6805,-2.679,-2.6837,-2.6878,-2.6941,-2.6983,-2.7033,-2.711,-2.7173,-2.7205,-2.7267,-2.7308,-2.7306,-2.7324,-2.7322,-2.7329,-2.7213,-2.7193,-2.7325,-2.7325,-2.7325,-2.7325,-2.7325,-2.7325,-2.6696,-2.6777,-2.6787,-2.6885,-2.691,-2.698,-2.7008,-2.7046,-2.7079,-2.7165,-2.7217,-2.7237,-2.7275,-2.7341,-2.7399,-2.7407,-2.7431,-2.7453,-2.7459,-2.7351,-2.7337,-2.7323,-2.7304,-2.7458,-2.7458,-2.757,-2.7571,-2.7572]}]]